| time (UTC) | temp F | wind direction | speed MPH | gust MPH | rain 1hr in | rain 24hr in | rain mn in | humidity % | barometer mb |
| 20260905000051 | 70 | 263 | 0.0 | 0.0 | 0.00 | 0.00 | 0.00 | 74 | 1017.3 |
| 20260904234552 | 70 | 263 | 0.0 | 0.0 | 0.00 | 0.00 | 0.00 | 73 | 1017.2 |
| 20260904233059 | 71 | 263 | 0.0 | 0.0 | 0.00 | 0.00 | 0.00 | 72 | 1017.1 |
| 20260904231548 | 71 | 263 | 0.0 | 0.0 | 0.00 | 0.00 | 0.00 | 71 | 1017.2 |
| 20260904230045 | 72 | 255 | 0.0 | 0.0 | 0.00 | 0.00 | 0.00 | 71 | 1017.2 |
| 20260904224546 | 72 | 255 | 0.0 | 0.0 | 0.00 | 0.00 | 0.00 | 69 | 1017.2 |
| 20260904223042 | 73 | 256 | 0.0 | 0.0 | 0.00 | 0.00 | 0.00 | 68 | 1017.2 |
| 20260904221537 | 73 | 256 | 0.0 | 0.0 | 0.00 | 0.00 | 0.00 | 67 | 1017.2 |
| 20260904220036 | 74 | 255 | 0.0 | 3.0 | 0.00 | 0.00 | 0.00 | 66 | 1017.1 |
| 20260904214541 | 75 | 252 | 0.0 | 2.0 | 0.00 | 0.00 | 0.00 | 63 | 1017.1 |
| 20260904213033 | 75 | 252 | 1.0 | 3.0 | 0.00 | 0.00 | 0.00 | 62 | 1016.9 |
| 20260904211532 | 76 | 251 | 0.0 | 2.0 | 0.00 | 0.00 | 0.00 | 61 | 1016.9 |
| 20260904210035 | 77 | 251 | 0.0 | 3.0 | 0.00 | 0.00 | 0.00 | 58 | 1016.8 |
| 20260904204532 | 78 | 211 | 0.0 | 4.0 | 0.00 | 0.00 | 0.00 | 55 | 1016.9 |
| 20260904203033 | 80 | 184 | 1.0 | 4.0 | 0.00 | 0.00 | 0.00 | 53 | 1016.9 |
| 20260904201531 | 80 | 175 | 1.0 | 5.0 | 0.00 | 0.00 | 0.00 | 51 | 1016.9 |
| 20260904200034 | 80 | 222 | 2.0 | 4.0 | 0.00 | 0.00 | 0.00 | 51 | 1016.9 |
| 20260904194530 | 82 | 222 | 0.0 | 4.0 | 0.00 | 0.00 | 0.00 | 49 | 1016.8 |
| 20260904193041 | 83 | 103 | 6.0 | 11.0 | 0.00 | 0.00 | 0.00 | 46 | 1016.7 |
| 20260904191529 | 83 | 104 | 5.0 | 11.0 | 0.00 | 0.00 | 0.00 | 46 | 1016.6 |
| 20260904190026 | 85 | 119 | 5.0 | 13.0 | 0.00 | 0.00 | 0.00 | 44 | 1016.5 |
| 20260904184526 | 86 | 174 | 6.0 | 12.0 | 0.00 | 0.00 | 0.00 | 42 | 1016.4 |
| 20260904183025 | 86 | 168 | 7.0 | 16.0 | 0.00 | 0.00 | 0.00 | 41 | 1016.1 |
| 20260904181524 | 86 | 170 | 10.0 | 21.0 | 0.00 | 0.00 | 0.00 | 42 | 1015.9 |
| 20260904180023 | 86 | 159 | 11.0 | 23.0 | 0.00 | 0.00 | 0.00 | 42 | 1015.6 |
| 20260904174528 | 87 | 208 | 12.0 | 25.0 | 0.00 | 0.00 | 0.00 | 41 | 1015.5 |
| 20260904173025 | 87 | 157 | 15.0 | 29.0 | 0.00 | 0.00 | 0.00 | 40 | 1015.5 |
| 20260904171524 | 87 | 226 | 13.0 | 23.0 | 0.00 | 0.00 | 0.00 | 41 | 1015.5 |
| 20260904170021 | 87 | 210 | 13.0 | 30.0 | 0.00 | 0.00 | 0.00 | 41 | 1015.5 |
| 20260904164521 | 87 | 235 | 10.0 | 25.0 | 0.00 | 0.00 | 0.00 | 42 | 1015.5 |
| 20260904163024 | 87 | 187 | 12.0 | 29.0 | 0.00 | 0.00 | 0.00 | 41 | 1015.5 |
| 20260904161519 | 87 | 216 | 14.0 | 28.0 | 0.00 | 0.00 | 0.00 | 41 | 1015.4 |
| 20260904160016 | 87 | 235 | 13.0 | 27.0 | 0.00 | 0.00 | 0.00 | 42 | 1015.5 |
| 20260904154516 | 88 | 221 | 12.0 | 25.0 | 0.00 | 0.00 | 0.00 | 42 | 1015.6 |
| 20260904153015 | 88 | 209 | 13.0 | 26.0 | 0.00 | 0.00 | 0.00 | 41 | 1015.6 |
| 20260904151515 | 89 | 186 | 13.0 | 27.0 | 0.00 | 0.00 | 0.00 | 39 | 1015.7 |
| 20260904150014 | 89 | 194 | 12.0 | 22.0 | 0.00 | 0.00 | 0.00 | 39 | 1015.7 |
| 20260904144510 | 90 | 209 | 13.0 | 21.0 | 0.00 | 0.00 | 0.00 | 39 | 1015.8 |
| 20260904143012 | 90 | 203 | 12.0 | 23.0 | 0.00 | 0.00 | 0.00 | 38 | 1015.9 |
| 20260904141508 | 90 | 196 | 11.0 | 25.0 | 0.00 | 0.00 | 0.00 | 38 | 1016.2 |
| 20260904140006 | 90 | 202 | 11.0 | 21.0 | 0.00 | 0.00 | 0.00 | 38 | 1016.3 |
| 20260904134504 | 90 | 210 | 13.0 | 22.0 | 0.00 | 0.00 | 0.00 | 38 | 1016.4 |
| 20260904133002 | 91 | 211 | 10.0 | 19.0 | 0.00 | 0.00 | 0.00 | 38 | 1016.6 |
| 20260904131636 | 91 | 167 | 11.0 | 20.0 | 0.00 | 0.00 | 0.00 | 38 | 1016.7 |
| 20260904130057 | 91 | 155 | 11.0 | 24.0 | 0.00 | 0.00 | 0.00 | 38 | 1017.0 |
| 20260904124554 | 90 | 173 | 10.0 | 18.0 | 0.00 | 0.00 | 0.00 | 39 | 1017.2 |
| 20260904123104 | 87 | 292 | 3.0 | 5.0 | 0.00 | 0.00 | 0.00 | 39 | 1017.5 |
| 20260904121548 | 86 | 266 | 2.0 | 7.0 | 0.00 | 0.00 | 0.00 | 39 | 1017.8 |
| 20260904120045 | 87 | 304 | 3.0 | 5.0 | 0.00 | 0.00 | 0.00 | 39 | 1018.0 |
| 20260904114545 | 86 | 246 | 2.0 | 4.0 | 0.00 | 0.00 | 0.00 | 40 | 1018.3 |
| 20260904113040 | 85 | 294 | 1.0 | 4.0 | 0.00 | 0.00 | 0.00 | 41 | 1018.5 |
| 20260904111540 | 85 | 292 | 2.0 | 4.0 | 0.00 | 0.00 | 0.00 | 41 | 1018.8 |
| 20260904110037 | 84 | 299 | 2.0 | 4.0 | 0.00 | 0.00 | 0.00 | 40 | 1018.9 |
| 20260904104529 | 82 | 302 | 2.0 | 7.0 | 0.00 | 0.00 | 0.00 | 41 | 1019.2 |
| 20260904103025 | 82 | 340 | 3.0 | 5.0 | 0.00 | 0.00 | 0.00 | 45 | 1019.4 |
| 20260904101521 | 81 | 327 | 2.0 | 5.0 | 0.00 | 0.00 | 0.00 | 45 | 1019.7 |
| 20260904100018 | 80 | 268 | 2.0 | 5.0 | 0.00 | 0.00 | 0.00 | 46 | 1019.9 |
| 20260904094515 | 79 | 318 | 1.0 | 6.0 | 0.00 | 0.00 | 0.00 | 48 | 1020.2 |
| 20260904093014 | 78 | 337 | 2.0 | 5.0 | 0.00 | 0.00 | 0.00 | 50 | 1020.4 |
| 20260904091510 | 77 | 316 | 0.0 | 4.0 | 0.00 | 0.00 | 0.00 | 52 | 1020.5 |
| 20260904090008 | 76 | 338 | 3.0 | 6.0 | 0.00 | 0.00 | 0.00 | 52 | 1020.7 |
| 20260904084506 | 76 | 18 | 3.0 | 6.0 | 0.00 | 0.00 | 0.00 | 52 | 1020.8 |
| 20260904083003 | 75 | 337 | 3.0 | 8.0 | 0.00 | 0.00 | 0.00 | 54 | 1021.0 |
| 20260904081600 | 74 | 34 | 1.0 | 5.0 | 0.00 | 0.00 | 0.00 | 55 | 1021.1 |
| 20260904080058 | 73 | 43 | 1.0 | 8.0 | 0.00 | 0.00 | 0.00 | 58 | 1021.2 |
| 20260904074615 | 72 | 302 | 3.0 | 5.0 | 0.00 | 0.00 | 0.00 | 60 | 1021.3 |
| 20260904073051 | 71 | 360 | 2.0 | 6.0 | 0.00 | 0.00 | 0.00 | 62 | 1021.3 |
| 20260904071551 | 70 | 298 | 3.0 | 5.0 | 0.00 | 0.00 | 0.00 | 64 | 1021.5 |
| 20260904070049 | 70 | 355 | 4.0 | 7.0 | 0.00 | 0.00 | 0.00 | 67 | 1021.7 |
| 20260904064550 | 69 | 31 | 2.0 | 6.0 | 0.00 | 0.00 | 0.00 | 70 | 1021.7 |
| 20260904063104 | 67 | 292 | 2.0 | 5.0 | 0.00 | 0.00 | 0.00 | 73 | 1021.8 |
| 20260904061546 | 66 | 304 | 1.0 | 3.0 | 0.00 | 0.00 | 0.00 | 75 | 1021.6 |
| 20260904060107 | 65 | 317 | 3.0 | 4.0 | 0.00 | 0.00 | 0.00 | 77 | 1021.5 |
| 20260904054545 | 64 | 342 | 2.0 | 5.0 | 0.00 | 0.00 | 0.00 | 78 | 1021.6 |
| 20260904053043 | 64 | 308 | 1.0 | 3.0 | 0.00 | 0.00 | 0.00 | 78 | 1021.5 |
| 20260904051540 | 64 | 308 | 1.0 | 3.0 | 0.00 | 0.00 | 0.00 | 78 | 1021.4 |
| 20260904050038 | 64 | 298 | 0.0 | 2.0 | 0.00 | 0.00 | 0.00 | 78 | 1021.3 |
| 20260904044546 | 64 | 298 | 1.0 | 3.0 | 0.00 | 0.00 | 0.00 | 78 | 1021.1 |
| 20260904043134 | 65 | 307 | 0.0 | 2.0 | 0.00 | 0.00 | 0.00 | 77 | 1021.0 |
| 20260904041534 | 65 | 307 | 0.0 | 2.0 | 0.00 | 0.00 | 0.00 | 77 | 1020.9 |
| 20260904040030 | 65 | 342 | 0.0 | 2.0 | 0.00 | 0.00 | 0.00 | 76 | 1020.9 |
| 20260904034528 | 66 | 342 | 0.0 | 3.0 | 0.00 | 0.00 | 0.00 | 76 | 1020.8 |
| 20260904033027 | 66 | 309 | 0.0 | 0.0 | 0.00 | 0.00 | 0.00 | 77 | 1020.9 |
| 20260904031526 | 66 | 309 | 0.0 | 2.0 | 0.00 | 0.00 | 0.00 | 76 | 1020.8 |
| 20260904030024 | 66 | 318 | 0.0 | 3.0 | 0.00 | 0.00 | 0.00 | 76 | 1020.6 |
| 20260904024523 | 66 | 317 | 0.0 | 3.0 | 0.00 | 0.00 | 0.00 | 75 | 1020.6 |
| 20260904023022 | 66 | 326 | 2.0 | 5.0 | 0.00 | 0.00 | 0.00 | 75 | 1020.7 |
| 20260904021525 | 66 | 301 | 0.0 | 3.0 | 0.00 | 0.00 | 0.00 | 76 | 1020.7 |
| 20260904020020 | 67 | 300 | 0.0 | 2.0 | 0.00 | 0.00 | 0.00 | 76 | 1020.7 |
| 20260904014523 | 67 | 299 | 0.0 | 3.0 | 0.00 | 0.00 | 0.00 | 75 | 1020.7 |
| 20260904013020 | 68 | 313 | 1.0 | 3.0 | 0.00 | 0.00 | 0.00 | 74 | 1020.6 |
| 20260904011530 | 68 | 347 | 1.0 | 3.0 | 0.00 | 0.00 | 0.00 | 73 | 1020.6 |
| 20260904010029 | 68 | 177 | 1.0 | 4.0 | 0.00 | 0.00 | 0.00 | 74 | 1020.5 |
| 20260904004515 | 68 | 67 | 2.0 | 4.0 | 0.00 | 0.00 | 0.00 | 74 | 1020.4 |
| 20260904003014 | 68 | 283 | 1.0 | 3.0 | 0.00 | 0.00 | 0.00 | 74 | 1020.3 |
| 20260904001513 | 67 | 280 | 0.0 | 3.0 | 0.00 | 0.00 | 0.00 | 76 | 1020.5 |